AAL937 KCLT-KDCA

Flight info

Callsign AAL937
Flight time N/A
Altitude 37000
Route KILNS5 AUDII WAVES CAPSS4
Aircraft B738/M-SDE2E3FGHIRWXY/LB1

Departure

Time 2026-05-07 19:50
Airport Charlotte Douglas International Airport (KCLT)

Arrival

Time N/A
Airport Ronald Reagan Washington National Airport (KDCA)
Time Latitude Longitude Altitude Speed Heading
2026-05-07 19:28 35.22120 -80.94036 728 ft 0 kts 176°
2026-05-07 19:40 35.22134 -80.94037 727 ft 2 kts 176°
2026-05-07 19:40 35.22149 -80.94038 727 ft 2 kts 176°
2026-05-07 19:40 35.22164 -80.94039 727 ft 2 kts 176°
2026-05-07 19:40 35.22179 -80.94041 728 ft 2 kts 176°
2026-05-07 19:41 35.22188 -80.94041 728 ft 0 kts 176°
2026-05-07 19:41 35.22179 -80.94034 728 ft 2 kts 122°
2026-05-07 19:41 35.22179 -80.94011 728 ft 2 kts 85°
2026-05-07 19:41 35.22180 -80.94004 728 ft 0 kts 85°
2026-05-07 19:45 35.22182 -80.93968 730 ft 8 kts 85°
2026-05-07 19:45 35.22185 -80.93909 732 ft 7 kts 86°
2026-05-07 19:45 35.22188 -80.93858 734 ft 4 kts 86°
2026-05-07 19:45 35.22192 -80.93779 735 ft 14 kts 86°
2026-05-07 19:46 35.22150 -80.93722 736 ft 11 kts 168°
2026-05-07 19:46 35.22036 -80.93713 734 ft 19 kts 177°
2026-05-07 19:46 35.21897 -80.93706 734 ft 19 kts 173°
2026-05-07 19:46 35.21766 -80.93690 733 ft 19 kts 176°
2026-05-07 19:47 35.21625 -80.93681 731 ft 20 kts 175°
2026-05-07 19:47 35.21482 -80.93669 731 ft 20 kts 177°
2026-05-07 19:47 35.21339 -80.93657 728 ft 21 kts 174°
2026-05-07 19:47 35.21172 -80.93639 725 ft 24 kts 176°
2026-05-07 19:48 35.20998 -80.93625 722 ft 25 kts 176°
2026-05-07 19:48 35.20821 -80.93609 718 ft 25 kts 174°
2026-05-07 19:48 35.20644 -80.93594 717 ft 25 kts 178°
2026-05-07 19:48 35.20470 -80.93581 715 ft 25 kts 175°
2026-05-07 19:49 35.20294 -80.93564 711 ft 25 kts 175°
2026-05-07 19:49 35.20123 -80.93545 708 ft 23 kts 167°
2026-05-07 19:49 35.20107 -80.93483 707 ft 8 kts 74°
2026-05-07 19:49 35.20129 -80.93416 707 ft 7 kts 15°
2026-05-07 19:50 35.20206 -80.93421 708 ft 28 kts 355°
2026-05-07 19:50 35.20725 -80.93467 715 ft 117 kts 355°
2026-05-07 19:50 35.21773 -80.93571 863 ft 176 kts 353°
2026-05-07 19:50 35.22992 -80.93694 1735 ft 183 kts 351°
2026-05-07 19:51 35.24278 -80.93763 2643 ft 193 kts 359°
2026-05-07 19:51 35.25638 -80.93518 3355 ft 207 kts
2026-05-07 19:51 35.27086 -80.93068 3994 ft 225 kts 11°
2026-05-07 19:51 35.28622 -80.92497 4663 ft 242 kts 14°
2026-05-07 19:52 35.30262 -80.91859 5364 ft 255 kts 11°
2026-05-07 19:52 35.31971 -80.91240 6229 ft 262 kts 16°
2026-05-07 19:52 35.33495 -80.89940 7042 ft 281 kts 47°
2026-05-07 19:52 35.34360 -80.87754 7773 ft 299 kts 73°
2026-05-07 19:53 35.34810 -80.85214 8395 ft 317 kts 78°
2026-05-07 19:53 35.35234 -80.82535 9226 ft 326 kts 77°
2026-05-07 19:53 35.35698 -80.79836 10136 ft 331 kts 77°
2026-05-07 19:53 35.36207 -80.77012 10643 ft 352 kts 76°
2026-05-07 19:54 35.36752 -80.74032 11205 ft 369 kts 76°
2026-05-07 19:54 35.37326 -80.70898 11752 ft 386 kts 76°
2026-05-07 19:54 35.37922 -80.67630 12352 ft 400 kts 76°
2026-05-07 19:54 35.38535 -80.64280 13131 ft 408 kts 76°
2026-05-07 19:55 35.39156 -80.60890 13939 ft 414 kts 76°
2026-05-07 19:55 35.39788 -80.57422 14609 ft 425 kts 76°
2026-05-07 19:55 35.40435 -80.53854 15358 ft 432 kts 76°
2026-05-07 19:55 35.41088 -80.50268 16046 ft 441 kts 75°
2026-05-07 19:56 35.41760 -80.46564 16688 ft 450 kts 75°
2026-05-07 19:56 35.42442 -80.42808 17408 ft 456 kts 76°
2026-05-07 19:56 35.43129 -80.39011 17982 ft 464 kts 75°
2026-05-07 19:56 35.43828 -80.35139 18670 ft 469 kts 76°
2026-05-07 19:57 35.44530 -80.31242 19285 ft 475 kts 77°
2026-05-07 19:57 35.45247 -80.27251 19917 ft 481 kts 77°
2026-05-07 19:57 35.45963 -80.23254 20494 ft 486 kts 77°
2026-05-07 19:57 35.46690 -80.19181 21077 ft 492 kts 77°
2026-05-07 19:58 35.47425 -80.15067 21577 ft 499 kts 77°
2026-05-07 19:58 35.48172 -80.10883 22142 ft 503 kts 78°
2026-05-07 19:58 35.48914 -80.06717 22726 ft 507 kts 78°
2026-05-07 19:58 35.49667 -80.02474 23209 ft 513 kts 78°
2026-05-07 19:59 35.50425 -79.98185 23707 ft 519 kts 78°
2026-05-07 19:59 35.51188 -79.93862 24214 ft 523 kts 78°
2026-05-07 19:59 35.51962 -79.89465 24759 ft 527 kts 77°
2026-05-07 19:59 35.52776 -79.85079 25199 ft 532 kts 75°
2026-05-07 20:00 35.53811 -79.80697 25658 ft 536 kts 69°
2026-05-07 20:00 35.55023 -79.76416 26162 ft 538 kts 67°
2026-05-07 20:00 35.56347 -79.72080 26633 ft 542 kts 66°
2026-05-07 20:00 35.57704 -79.67754 27040 ft 547 kts 65°
2026-05-07 20:01 35.59071 -79.63419 27559 ft 549 kts 65°
2026-05-07 20:01 35.60452 -79.59029 27931 ft 554 kts 65°
2026-05-07 20:01 35.61841 -79.54600 28341 ft 558 kts 65°
2026-05-07 20:01 35.63219 -79.50186 28772 ft 562 kts 64°
2026-05-07 20:02 35.64624 -79.45676 29133 ft 567 kts 65°
2026-05-07 20:02 35.66021 -79.41167 29589 ft 569 kts 65°
2026-05-07 20:02 35.67451 -79.36607 29864 ft 575 kts 63°
2026-05-07 20:02 35.69091 -79.32125 30407 ft 571 kts 59°
2026-05-07 20:03 35.71081 -79.27976 30807 ft 562 kts 47°
2026-05-07 20:03 35.73650 -79.24493 31309 ft 545 kts 33°
2026-05-07 20:03 35.76480 -79.21502 31911 ft 536 kts 29°
2026-05-07 20:03 35.79412 -79.18655 32252 ft 535 kts 26°
2026-05-07 20:04 35.82355 -79.15915 32804 ft 531 kts 26°
2026-05-07 20:04 35.85298 -79.13210 33259 ft 530 kts 25°
2026-05-07 20:04 35.88277 -79.10488 33608 ft 532 kts 25°
2026-05-07 20:04 35.91244 -79.07773 34132 ft 530 kts 25°
2026-05-07 20:05 35.94163 -79.05091 34745 ft 526 kts 25°
2026-05-07 20:05 35.97083 -79.02400 35359 ft 521 kts 25°
2026-05-07 20:05 35.99987 -78.99728 35683 ft 523 kts 25°
2026-05-07 20:05 36.02926 -78.97031 35829 ft 529 kts 25°
2026-05-07 20:06 36.05861 -78.94329 36254 ft 527 kts 25°
2026-05-07 20:06 36.08797 -78.91614 36711 ft 526 kts 25°
2026-05-07 20:06 36.11765 -78.88873 36847 ft 530 kts 25°
2026-05-07 20:06 36.14759 -78.86108 36879 ft 532 kts 25°
2026-05-07 20:07 36.20716 -78.80585 36881 ft 526 kts 26°
2026-05-07 20:07 36.26540 -78.75029 36882 ft 528 kts 27°
2026-05-07 20:08 36.32405 -78.69350 36887 ft 533 kts 27°
2026-05-07 20:08 36.38184 -78.63735 36882 ft 528 kts 26°
2026-05-07 20:09 36.44031 -78.58076 36891 ft 531 kts 26°
2026-05-07 20:10 36.52702 -78.49665 36889 ft 529 kts 26°
2026-05-07 20:10 36.58557 -78.43978 36889 ft 534 kts 26°
2026-05-07 20:11 36.64408 -78.38280 36893 ft 532 kts 27°
2026-05-07 20:11 36.70205 -78.32614 36903 ft 530 kts 28°
2026-05-07 20:12 36.76070 -78.26888 36907 ft 535 kts 27°
2026-05-07 20:12 36.81906 -78.21166 36904 ft 531 kts 27°
2026-05-07 20:13 36.87714 -78.15456 36903 ft 532 kts 28°
2026-05-07 20:13 36.93559 -78.09713 36902 ft 534 kts 28°
2026-05-07 20:13 36.96474 -78.06840 36787 ft 533 kts 28°
2026-05-07 20:14 36.99370 -78.03979 36248 ft 532 kts 27°
2026-05-07 20:14 37.02260 -78.01124 35501 ft 534 kts 28°
2026-05-07 20:14 37.05186 -77.98237 34631 ft 538 kts 28°
2026-05-07 20:14 37.08110 -77.95351 33789 ft 540 kts 27°
2026-05-07 20:15 37.11055 -77.92432 33209 ft 537 kts 27°
2026-05-07 20:15 37.13992 -77.89515 32584 ft 535 kts 27°
2026-05-07 20:15 37.16921 -77.86605 31923 ft 534 kts 28°
2026-05-07 20:15 37.19822 -77.83723 31246 ft 534 kts 28°
2026-05-07 20:16 37.22705 -77.80851 30575 ft 528 kts 28°
2026-05-07 20:16 37.25565 -77.78002 29887 ft 527 kts 28°
2026-05-07 20:16 37.28448 -77.75133 29198 ft 527 kts 28°
2026-05-07 20:16 37.31278 -77.72313 28546 ft 526 kts 28°
2026-05-07 20:17 37.34167 -77.69431 27857 ft 526 kts 29°
2026-05-07 20:17 37.36989 -77.66613 27177 ft 523 kts 29°
2026-05-07 20:17 37.39819 -77.63776 26518 ft 517 kts 29°
2026-05-07 20:17 37.42627 -77.60963 25827 ft 517 kts 30°
2026-05-07 20:18 37.45442 -77.58143 25162 ft 516 kts 30°
2026-05-07 20:18 37.48209 -77.55369 24475 ft 516 kts 31°
2026-05-07 20:18 37.51018 -77.52549 23815 ft 515 kts 31°
2026-05-07 20:18 37.53796 -77.49770 23127 ft 513 kts 30°
2026-05-07 20:19 37.56687 -77.47144 22417 ft 502 kts 25°
2026-05-07 20:19 37.59611 -77.45058 22015 ft 472 kts 14°
2026-05-07 20:19 37.62600 -77.43684 21931 ft 443 kts
2026-05-07 20:19 37.65505 -77.42660 21921 ft 422 kts
2026-05-07 20:20 37.68279 -77.41775 21904 ft 405 kts
2026-05-07 20:20 37.70994 -77.40934 21915 ft 393 kts
2026-05-07 20:20 37.73643 -77.40129 21903 ft 393 kts
2026-05-07 20:20 37.76349 -77.39326 21627 ft 407 kts
2026-05-07 20:21 37.79098 -77.38506 21126 ft 414 kts
2026-05-07 20:21 37.81924 -77.37640 20590 ft 414 kts
2026-05-07 20:21 37.84713 -77.36774 20042 ft 413 kts
2026-05-07 20:21 37.87502 -77.35909 19477 ft 413 kts
2026-05-07 20:22 37.90288 -77.35045 18908 ft 412 kts
2026-05-07 20:22 37.93051 -77.34190 18346 ft 410 kts
2026-05-07 20:22 37.95795 -77.33344 17794 ft 407 kts
2026-05-07 20:22 37.98534 -77.32500 17295 ft 403 kts
2026-05-07 20:23 38.01217 -77.31670 16793 ft 399 kts
2026-05-07 20:23 38.03914 -77.30838 16251 ft 396 kts
2026-05-07 20:23 38.06586 -77.30014 15707 ft 393 kts
2026-05-07 20:23 38.09216 -77.29198 15185 ft 390 kts
2026-05-07 20:24 38.11831 -77.28378 14656 ft 387 kts
2026-05-07 20:24 38.14454 -77.27554 14113 ft 384 kts
2026-05-07 20:24 38.17029 -77.26744 13586 ft 380 kts
2026-05-07 20:24 38.19551 -77.25950 13138 ft 376 kts
2026-05-07 20:25 38.22065 -77.25095 13004 ft 362 kts
2026-05-07 20:25 38.24408 -77.24190 12989 ft 346 kts 10°
2026-05-07 20:25 38.26669 -77.23302 12979 ft 333 kts
2026-05-07 20:25 38.28872 -77.22457 12672 ft 333 kts
2026-05-07 20:26 38.31104 -77.21619 12190 ft 338 kts
2026-05-07 20:26 38.33373 -77.20762 11715 ft 337 kts
2026-05-07 20:26 38.35619 -77.19909 11244 ft 336 kts
2026-05-07 20:26 38.37831 -77.19063 11012 ft 327 kts
2026-05-07 20:27 38.39969 -77.18230 11006 ft 316 kts
2026-05-07 20:27 38.42059 -77.17423 11000 ft 318 kts
2026-05-07 20:27 38.44214 -77.16601 11001 ft 323 kts
2026-05-07 20:27 38.46355 -77.15777 10979 ft 322 kts
2026-05-07 20:28 38.48507 -77.14942 10999 ft 320 kts
2026-05-07 20:28 38.50639 -77.14117 10954 ft 320 kts
2026-05-07 20:28 38.52758 -77.13296 10598 ft 318 kts
2026-05-07 20:28 38.54872 -77.12478 10175 ft 316 kts
2026-05-07 20:29 38.56943 -77.11672 10005 ft 305 kts
2026-05-07 20:29 38.58928 -77.10895 9992 ft 291 kts
2026-05-07 20:29 38.60826 -77.10162 9993 ft 285 kts
2026-05-07 20:29 38.62736 -77.09434 9934 ft 282 kts
2026-05-07 20:30 38.64594 -77.08720 9727 ft 284 kts
2026-05-07 20:30 38.66527 -77.07986 9266 ft 293 kts
2026-05-07 20:30 38.68476 -77.07283 8876 ft 289 kts
2026-05-07 20:30 38.70437 -77.06927 8509 ft 283 kts 359°
2026-05-07 20:31 38.72395 -77.06728 8152 ft 280 kts 358°
2026-05-07 20:31 38.74339 -77.06546 7796 ft 277 kts 359°
2026-05-07 20:31 38.76224 -77.06583 7445 ft 269 kts 347°
2026-05-07 20:31 38.77942 -77.07348 7112 ft 260 kts 327°
2026-05-07 20:32 38.79445 -77.08598 6785 ft 256 kts 324°
2026-05-07 20:32 38.80924 -77.09862 6459 ft 253 kts 326°
2026-05-07 20:32 38.82397 -77.11086 6138 ft 251 kts 327°
2026-05-07 20:32 38.83747 -77.12440 5969 ft 240 kts 317°
2026-05-07 20:33 38.84921 -77.13887 5857 ft 228 kts 316°
2026-05-07 20:33 38.86022 -77.15261 5759 ft 216 kts 316°
2026-05-07 20:33 38.87071 -77.16565 5661 ft 206 kts 316°
2026-05-07 20:33 38.88077 -77.17818 5569 ft 196 kts 316°
2026-05-07 20:34 38.89027 -77.19001 5482 ft 185 kts 316°
2026-05-07 20:34 38.89933 -77.20130 5311 ft 180 kts 316°
2026-05-07 20:34 38.90828 -77.21246 5044 ft 180 kts 317°
2026-05-07 20:34 38.91737 -77.22377 4732 ft 184 kts 316°
2026-05-07 20:35 38.92674 -77.23545 4313 ft 192 kts 317°
2026-05-07 20:35 38.93645 -77.24754 3901 ft 198 kts 317°
2026-05-07 20:35 38.94648 -77.25977 3490 ft 203 kts 318°
2026-05-07 20:35 38.95815 -77.26985 3137 ft 200 kts 346°
2026-05-07 20:36 38.97131 -77.26843 3019 ft 187 kts 21°
2026-05-07 20:36 38.98247 -77.26123 2990 ft 172 kts 30°
2026-05-07 20:36 38.99080 -77.25073 2957 ft 168 kts 59°
2026-05-07 20:36 38.99456 -77.23647 2938 ft 173 kts 77°
2026-05-07 20:37 38.99423 -77.22089 2902 ft 176 kts 104°
2026-05-07 20:37 38.98889 -77.20692 2879 ft 177 kts 118°
2026-05-07 20:37 38.98266 -77.19308 2831 ft 177 kts 117°
2026-05-07 20:37 38.97665 -77.17941 2777 ft 176 kts 117°
2026-05-07 20:38 38.97055 -77.16570 2727 ft 177 kts 117°
2026-05-07 20:38 38.96401 -77.15231 2676 ft 177 kts 127°
2026-05-07 20:38 38.95468 -77.14150 2530 ft 184 kts 139°
2026-05-07 20:38 38.94495 -77.13098 2254 ft 180 kts 137°
2026-05-07 20:39 38.93567 -77.12073 2012 ft 170 kts 139°
2026-05-07 20:39 38.92595 -77.11336 1954 ft 154 kts 153°
2026-05-07 20:39 38.91649 -77.10731 1830 ft 157 kts 147°
2026-05-07 20:39 38.90861 -77.09779 1554 ft 150 kts 118°
2026-05-07 20:40 38.90454 -77.08639 1511 ft 135 kts 116°
2026-05-07 20:40 38.89805 -77.07752 1593 ft 144 kts 139°
2026-05-07 20:40 38.89045 -77.06810 1519 ft 163 kts 129°
2026-05-07 20:40 38.88366 -77.05580 1115 ft 169 kts 121°
2026-05-07 20:41 38.87751 -77.04330 685 ft 165 kts 130°
2026-05-07 20:41 38.86819 -77.03763 484 ft 153 kts 181°
2026-05-07 20:41 38.85775 -77.03801 261 ft 137 kts 179°
2026-05-07 20:41 38.84819 -77.03735 317 ft 157 kts 177°